Nellis AFB, NV

9:48 AM PST on December 14, 2017 (GMT -0800)
Nellis Air Force Base

Weather History for KLSV - January, 2014

Change the Weather History Date:

Monday, January 20, 2014

  Actual Average Record
Temperature  
Mean Temperature 48 °F -  
Max Temperature 66 °F 58 °F 69 °F (1999)
Min Temperature 31 °F 36 °F 25 °F (2008)
Degree Days  
Heating Degree Days 16    
Moisture  
Dew Point 15 °F    
Average Humidity 29    
Maximum Humidity 49    
Minimum Humidity 14    
Precipitation  
Precipitation 0.00 in - - ()
Sea Level Pressure  
Sea Level Pressure 30.25 in    
Wind  
Wind Speed 2 mph (North)    
Max Wind Speed 5 mph    
Max Gust Speed -    
Visibility 10 miles    
Events      
Averages and records for this station are not official NWS values.
T = Trace of Precipitation, MM = Missing Value Source: NWS Daily Summary

Daily Weather History Graph

Daily Weather History Graph

Search for Another Location

Airport or City:

Trip Planner

Search our weather history database for the weather conditions in past years. The results will help you decide how hot, cold, wet, or windy it might be!

Date:

Astronomy

Jan. 20, 2014 Rise Set
Actual Time 6:48 AM PST 4:54 PM PST
Civil Twilight 6:20 AM PST 5:21 PM PST
Nautical Twilight 5:49 AM PST 5:53 PM PST
Astronomical Twilight 5:18 AM PST 6:23 PM PST
Moon 9:23 PM PST (1/20) 8:59 AM PST (1/20)
Length of Visible Light 11h 00m
Length of Day
10h 05m
Waning Gibbous, 82% of the Moon is Illuminated
Jan 20
Waning Gibbous
Jan 23
Last Quarter
Jan 30
New
Feb 6
First Quarter
Feb 14
Full

Hourly Weather History & Observations

Time (PST) Temp. Windchill Dew Point Humidity Pressure Visibility Wind Dir Wind Speed Gust Speed Precip Events Conditions
12:58 AM 41.0 °F - 15.4 °F 36% 30.17 in 10.0 mi SW 2.3 mph - N/A   Clear
1:58 AM 37.4 °F - 14.5 °F 39% 30.17 in 10.0 mi NNE 2.3 mph - N/A   Clear
2:58 AM 35.6 °F - 14.4 °F 42% 30.20 in 10.0 mi NE 1.2 mph - N/A   Clear
3:58 AM 34.2 °F - 14.2 °F 44% 30.20 in 10.0 mi Calm Calm - N/A   Clear
4:58 AM 34.5 °F - 14.5 °F 44% 30.21 in 10.0 mi Calm Calm - N/A   Clear
5:58 AM 31.5 °F 28.1 °F 14.0 °F 49% 30.25 in 10.0 mi NE 3.5 mph - N/A   Clear
6:58 AM 33.1 °F - 14.4 °F 46% 30.27 in 10.0 mi Calm Calm - N/A   Clear
7:58 AM 32.5 °F 29.3 °F 14.7 °F 48% 30.28 in 10.0 mi East 3.5 mph - N/A   Clear
8:58 AM 42.4 °F - 16.2 °F 35% 30.29 in 10.0 mi North 2.3 mph - N/A   Clear
9:58 AM 47.8 °F - 16.3 °F 28% 30.31 in 10.0 mi Calm Calm - N/A   Clear
10:58 AM 55.6 °F - 15.1 °F 20% 30.28 in 10.0 mi Calm Calm - N/A   Clear
11:58 AM 62.6 °F - 14.4 °F 15% 30.25 in 10.0 mi WSW 2.3 mph - N/A   Clear
12:58 PM 63.0 °F - 14.9 °F 15% 30.22 in 10.0 mi SW 2.3 mph - N/A   Clear
1:58 PM 64.9 °F - 14.2 °F 14% 30.20 in 10.0 mi Calm Calm - N/A   Clear
2:58 PM 66.2 °F - 14.9 °F 14% 30.20 in 10.0 mi SSW 1.2 mph - N/A   Clear
3:58 PM 64.9 °F - 14.9 °F 14% 30.21 in 10.0 mi SSW 2.3 mph - N/A   Clear
4:58 PM 62.2 °F - 14.5 °F 16% 30.22 in 10.0 mi SW 2.3 mph - N/A   Clear
5:58 PM 55.0 °F - 14.7 °F 20% 30.25 in 10.0 mi NE 4.6 mph - N/A   Clear
6:58 PM 49.8 °F - 15.3 °F 25% 30.27 in 10.0 mi NNE 3.5 mph - N/A   Clear
7:58 PM 50.0 °F - 15.1 °F 25% 30.29 in 10.0 mi NNW 4.6 mph - N/A   Clear
8:58 PM 47.1 °F - 14.9 °F 28% 30.30 in 10.0 mi NE 4.6 mph - N/A   Clear
9:58 PM 46.9 °F - 14.5 °F 27% 30.31 in 10.0 mi NNE 4.6 mph - N/A   Clear
10:58 PM 46.0 °F - 15.8 °F 30% 30.32 in 10.0 mi NNW 2.3 mph - N/A   Clear
11:58 PM 42.4 °F - 15.1 °F 33% 30.31 in 10.0 mi Calm Calm - N/A   Clear